Change the Weather History Date:

Monday, August 13, 2012

  Actual Average Record
Temperature  
Mean Temperature 72 °F 70 °F  
Max Temperature 95 °F 88 °F 99 °F (2003)
Min Temperature 49 °F 52 °F 40 °F (1966)
Degree Days  
Heating Degree Days 0 0  
Month to date heating degree days 0 0  
Since 1 June heating degree days 133 151  
Since 1 July heating degree days 1 20  
Cooling Degree Days 7 5  
Month to date cooling degree days 106 77  
Year to date cooling degree days 444 300  
Since 1 June cooling degree days 440 295  
Growing Degree Days 22 (Base 50)    
Moisture  
Dew Point 36 °F    
Average Humidity 37    
Maximum Humidity 66    
Minimum Humidity 7    
Precipitation  
Precipitation 0.00 in 0.02 in 0.66 in (1968)
Month to date precipitation 0.06 0.24  
Year to date precipitation 6.26 7.70  
Snow  
Snow 0.00 in - - ()
Month to date snowfall 0.0  
Since 1 June snowfall T  
Since 1 July snowfall 0.0  
Snow Depth 0.00 in    
Sea Level Pressure  
Sea Level Pressure 29.92 in    
Wind  
Wind Speed 6 mph (WSW)    
Max Wind Speed 13 mph    
Max Gust Speed 18 mph    
Visibility 10 miles    
Events      
T = Trace of Precipitation, MM = Missing Value Source: NWS Daily Summary

Daily Weather History Graph

Daily Weather History Graph

Search for Another Location

Airport or City:

Trip Planner

Search our weather history database for the weather conditions in past years. The results will help you decide how hot, cold, wet, or windy it might be!

Date:

Astronomy

Aug. 13, 2012 Rise Set
Actual Time 6:34 AM MDT 8:34 PM MDT
Civil Twilight 6:03 AM MDT 9:05 PM MDT
Nautical Twilight 5:26 AM MDT 9:42 PM MDT
Astronomical Twilight 4:45 AM MDT 10:23 PM MDT
Moon 2:38 AM MDT (8/13) 5:51 PM MDT (8/13)
Length of Visible Light 15h 01m
Length of Day
13h 59m
Waning Crescent, 16% of the Moon is Illuminated
Aug 13
Waning Crescent
Aug 17
New
Aug 24
First Quarter
Aug 31
Full
Sep 8
Last Quarter

Hourly Weather History & Observations

Time (MDT) Temp. Dew Point Humidity Pressure Visibility Wind Dir Wind Speed Gust Speed Precip Events Conditions
12:53 AM 69.1 °F 39.9 °F 35% 29.88 in 9.0 mi East 3.5 mph - N/A   Clear
1:53 AM 57.9 °F 44.1 °F 60% 29.91 in 10.0 mi NNW 9.2 mph - N/A   Clear
2:53 AM 55.0 °F 42.1 °F 62% 29.92 in 10.0 mi NNE 4.6 mph - N/A   Clear
3:53 AM 53.1 °F 41.0 °F 64% 29.93 in 10.0 mi SSE 3.5 mph - N/A   Clear
4:53 AM 54.0 °F 39.0 °F 57% 29.93 in 10.0 mi West 3.5 mph - N/A   Clear
5:53 AM 50.0 °F 39.9 °F 68% 29.94 in 10.0 mi Calm Calm - N/A   Clear
6:53 AM 53.1 °F 39.9 °F 61% 29.95 in 10.0 mi West 4.6 mph - N/A   Clear
7:53 AM 55.9 °F 41.0 °F 57% 29.98 in 10.0 mi SSW 5.8 mph - N/A   Clear
8:53 AM 66.0 °F 44.1 °F 45% 29.97 in 10.0 mi ESE 3.5 mph - N/A   Clear
9:53 AM 73.9 °F 43.0 °F 33% 29.98 in 10.0 mi Calm Calm - N/A   Clear
10:53 AM 80.1 °F 44.1 °F 28% 29.98 in 10.0 mi WSW 3.5 mph - N/A   Clear
11:53 AM 82.9 °F 45.0 °F 26% 29.97 in 10.0 mi NNW 5.8 mph - N/A   Clear
12:53 PM 89.1 °F 36.0 °F 15% 29.93 in 10.0 mi West 8.1 mph - N/A   Clear
1:53 PM 91.0 °F 26.1 °F 10% 29.93 in 8.0 mi West 8.1 mph - N/A   Clear
2:53 PM 93.0 °F 30.9 °F 11% 29.91 in 10.0 mi NNW 6.9 mph - N/A   Clear
3:53 PM 93.0 °F 27.0 °F 9% 29.89 in 9.0 mi NNW 3.5 mph - N/A   Clear
4:53 PM 93.0 °F 19.0 °F 7% 29.87 in 9.0 mi NNW 4.6 mph - N/A   Clear
5:53 PM 93.0 °F 19.9 °F 7% 29.87 in 10.0 mi WSW 10.4 mph - N/A   Clear
6:53 PM 91.0 °F 21.0 °F 8% 29.86 in 10.0 mi SSW 8.1 mph - N/A   Clear
7:53 PM 86.0 °F 28.9 °F 13% 29.86 in 10.0 mi SSW 8.1 mph - N/A   Clear
8:53 PM 77.0 °F 36.0 °F 23% 29.86 in 10.0 mi SSW 10.4 mph - N/A   Clear
9:53 PM 79.0 °F 35.1 °F 20% 29.88 in 8.0 mi SW 11.5 mph - N/A   Clear
10:53 PM 71.1 °F 36.0 °F 28% 29.88 in 10.0 mi SW 5.8 mph - N/A   Clear
11:53 PM 64.0 °F 37.9 °F 38% 29.89 in 10.0 mi West 5.8 mph - N/A   Clear